Other Public Products
Issued by NWS Grand Forks, ND

Home | Current Version | Previous Version | Graphics & Text | Print | Product List | Glossary On
Versions: 1 2 3 4 5 6 7 8 9 10 11 12 13 14 15 16 17 18 19 20 21 22 23 24 25 26 27 28 29 30 31 32 33 34 35 36 37 38 39 40 41 42 43 44 45 46 47 48 49 50
000
FPUS83 KFGF 020710
OPUFGF
PRAIRIE TO PINES WEATHER ROUNDUP
NATIONAL WEATHER SERVICE EASTERN NORTH DAKOTA/GRAND FORKS ND
200 AM CDT MON MAY 02 2016

 **SATELLITE DATA USED TO AUGMENT SKY COVER AT AUTOMATED STATIONS**
 *****  WEATHER ACROSS EASTERN NORTH DAKOTA  *****

CITY           SKY/WX    TMP DP  RH WIND       PRES   REMARKS
GRAND FORKS    CLOUDY    44  32  62 S6        30.08F
GRAND FORKS AF MOCLDY    47  30  50 SW5       30.09F
GRAND CITY NWS NOT AVBL
BUXTON         NOT AVBL
DEVILS LAKE    CLOUDY    49  34  56 S6        30.09F
FARGO          PTCLDY    43  30  60 W6        30.10F
WAHPETON ARPT  SUNNY     41  28  60 CALM      30.11F
$$

 *****  WEATHER ACROSS CENTRAL AND WESTERN NORTH DAKOTA  *****

CITY           SKY/WX    TMP DP  RH WIND       PRES   REMARKS
JAMESTOWN      PTCLDY    46  32  58 SW6       30.10F
BISMARCK       PTCLDY    44  33  65 CALM      30.13F
MINOT          CLOUDY    59  28  30 SW13      30.05F
MINOT AFB      PTCLDY    55  30  37 SW12G21   30.02F
GARRISON         N/A     47  32  56 W9        30.09F
WILLISTON      MOCLDY    52  34  50 W16       30.09F
DICKINSON      CLEAR     37  28  70 SW5       30.12F
HETTINGER      CLEAR     35  28  75 CALM      30.17F
$$

 *****  OTHER OBSERVATIONS NORTHEAST NORTH DAKOTA  *****

CITY           SKY/WX    TMP DP  RH WIND       PRES   REMARKS
WALHALLA       FAIR      54  27  35 SW10      30.07S
LANGDON        CLOUDY    46  30  53 S9        30.07F
CAVALIER       FAIR      48  32  53 SW5       30.07F
GRAFTON        FAIR      48  32  53 SW6       30.10S
CANDO          CLOUDY    46  30  53 SW3       30.09F
FORT TOTTEN      N/A     47  27  46 SE5       29.95S
ROLLA          CLOUDY    54  27  35 W14       30.09R
RUGBY          FAIR      54  28  37 SW12      30.08S
 ***** THE ABOVE OBSERVATIONS ARE NON NWS ARE NOT QUALITY
        CONTROLLED AND MAY MIS-REPORT RAIN FOR SNOW...
$$

 *****  OTHER OBSERVATIONS SOUTHEAST NORTH DAKOTA *****

CITY           SKY/WX    TMP DP  RH WIND       PRES   REMARKS
COOPERSTOWN    NOT AVBL
VALLEY CITY    FAIR      39  32  75 SW3       30.13F
OAKES            N/A    N/A N/A N/A MISG        N/A
GWINNER        FAIR      41  36  81 SW6       30.12F
SHEYENNE NWR     N/A     36  31  82 W2        29.95S
BUFFALO        NOT AVBL
WYNDMERE       NOT AVBL
 ***** THE ABOVE OBSERVATIONS ARE NON NWS ARE NOT QUALITY
       CONTROLLED AND MAY MIS-REPORT RAIN FOR SNOW...
$$

  *****  WEATHER ACROSS NORTHERN MINNESOTA  *****

CITY           SKY/WX    TMP DP  RH WIND       PRES   REMARKS
FLAG ISLAND    CLOUDY    46  34  61 CALM      30.08F
WARROAD        CLOUDY    43  36  75 S3        30.10F
ROSEAU         CLOUDY    45  34  65 S5        30.09F
HALLOCK        CLOUDY    46  30  53 SE6       30.08S
THF RVR FALLS  PTCLDY    45  23  42 S5        30.10F
HALSTAD        NOT AVBL
FOSSTON        PTCLDY    36  27  69 CALM      30.10F
BAUDETTE       CLOUDY    35  29  78 SW6       30.09F
WASKISH        PTCLDY    36  36 100 CALM      30.10F
CROOKSTON      CLOUDY    45  32  61 S6        30.10F
$$
  *****  WEATHER ACROSS CENTRAL AND WEST MINNESOTA  *****

CITY           SKY/WX    TMP DP  RH WIND       PRES   REMARKS
BEMIDJI        CLEAR     33  28  80 CALM      30.10F
PARK RAPIDS    PTCLDY    36  29  75 CALM      30.11F
WADENA         PTCLDY    37  30  75 CALM      30.12S
DETROIT LAKES  CLEAR     45  34  65 CALM      30.12F
MOORHEAD       CLOUDY    45  34  65 S5        30.11F HAZE
FERGUS FALLS   CLEAR     43  34  70 E5        30.10S
ELBOW LAKE     FAIR      41  32  71 SE6       30.12F
MORRIS MN      CLEAR     41  34  75 S5        30.13S
STAPLES        CLEAR     39  32  75 CALM      30.12F
WHEATON        CLEAR     46  39  76 SW5       30.14F
$$
  *****  WEATHER ELSEWHERE ACROSS MINNESOTA  *****

CITY           SKY/WX    TMP DP  RH WIND       PRES   REMARKS
DULUTH         CLEAR     38  31  76 NE3       30.12F
INTRNTL FALLS  CLEAR     30  27  88 SE6       30.10F WCI  24
ELY            CLEAR     32  28  86 CALM      30.13S
CLOQUET        CLEAR     30  27  86 CALM      30.13S
BRAINERD       PTCLDY    37  30  75 CALM      30.12F
HIBBING        CLEAR     28  27  96 CALM      30.12F
ALEXANDRIA     CLEAR     44  31  60 SW3       30.13F
SAINT CLOUD    CLEAR     38  32  79 CALM      30.13S
MINNEAPOLIS    CLEAR     49  35  58 N3        30.12S
$$

  *****  WEATHER ACROSS SOUTH DAKOTA  *****

CITY           SKY/WX    TMP DP  RH WIND       PRES   REMARKS
SIOUX FALLS    CLEAR     38  34  85 CALM      30.17S
BROOKINGS      CLEAR     41  32  70 SE3       30.15F
WATERTOWN      CLEAR     38  33  82 CALM      30.15S
HURON          CLEAR     38  34  85 W3        30.17S
SISSETON         N/A     43  34  70 W5        30.12F
ABERDEEN       CLEAR     38  32  79 W9        30.15F
MITCHELL       PTCLDY    42  37  82 W5        30.18F
PIERRE         CLEAR     41  34  76 SW7       30.17F
MOBRIDGE       CLEAR     39  33  79 E3        30.14S
RAPID CITY     CLEAR     36  29  75 W7        30.21F
$$

  *****  SOME WEATHER IN NEARBY STATES *****

CITY           SKY/WX    TMP DP  RH WIND       PRES   REMARKS
GLASGOW MT     MOCLDY    50  35  56 W3        30.15S
GREAT FALLS MT CLEAR     39  32  76 SW6       30.19R
CHEYENNE WY    CLEAR     28  20  71 W12       30.27S WCI  18
SCOTTSBLUFF NE CLEAR     34  29  82 NW8       30.25F
OMAHA NE       CLOUDY    48  45  89 NW3       30.15F
DES MOINES IA  CLOUDY    48  44  86 NW3       30.12S
DAVENPORT IA   CLOUDY    48  46  93 N8        30.06S
CHICAGO IL     CLOUDY    44  41  89 NE16      30.01F
EAU CLAIRE WI  CLEAR     41  35  79 N3        30.11R
LA CROSSE WI   CLOUDY    44  39  82 E3        30.11S
$$

  *****  SOME NATIONAL WEATHER *****

CITY           SKY/WX    TMP DP  RH WIND       PRES   REMARKS
LA GUARDIA NY  CLOUDY    46  43  89 N6        30.04S
RALEIGH NC     CLOUDY    67  65  93 SW8       29.99S
ATLANTA GA     CLOUDY    67  63  87 CALM      30.01F
NEW ORLEANS LA PTCLDY    71  66  84 N5        29.95S
OKLAHOMA CITY  MOCLDY    50  44  80 N10       30.16S
ALBUQUERQUE NM PTCLDY    40  31  70 E18       30.25F
SALT LAKE CITY PTCLDY    49  30  48 SW3       30.12R
LOS ANGELES CA PTCLDY    58  52  80 SW6       30.02R
BOISE ID       PTCLDY    54  33  45 E6        30.08S
SEATTLE WA     CLEAR     70  39  32 E9        29.95F
$$

*** WEATHER ACROSS MANITOBA...SASKATCHEWAN AND ONTARIO ***
                ***ONTARIO***

CITY           SKY/WX    TMP DP  RH WIND       PRES   REMARKS
GERALDTON      CLEAR     28  27  93 CALM      30.14S
THUNDER BAY    CLEAR     32  30  93 W5        30.14F
SIOUX LOOKOUT  PTCLDY    32  30  93 S3        30.09F
TORONTO        CLOUDY    45  41  87 NE5       30.00S
BIG TROUT LK   CLOUDY    45  30  57 S6        30.03F
PICKLE LAKE    NOT AVBL
DRYDEN         CLEAR     45  32  61 S2        30.09F
KENORA         MOCLDY    46  28  49 SW5       30.09F
$$
                *** MANITOBA***

CITY           SKY/WX    TMP DP  RH WIND       PRES   REMARKS
BRANDON        LGT RAIN  50  45  81 N17G24    30.08R
DAUPHIN        CLEAR     43  41  93 NE5       30.00F
ISLAND LAKE    NOT AVBL
PILOT MOUND    NOT AVBL
THE PAS        CLEAR     36  36 100 VRB2      30.03F
THOMPSON       CLEAR     39  37  93 VRB2      29.97F
WINNIPEG       MOCLDY    52  30  43 S12       30.06F
LYNN LAKE      CLEAR     37  34  87 SW7       29.96F
GILLAM         CLEAR     43  34  70 SW6       29.95R
$$
                ***SASKATCHEWAN***

CITY           SKY/WX    TMP DP  RH WIND       PRES   REMARKS
ESTEVAN        NOT AVBL
KINDERSLEY     CLEAR     48  34  57 W5        30.08S
LLOYDMINSTER   CLEAR     48  37  66 W9        30.04S
PRINCE ALBERT  PTCLDY    48  39  71 E6        30.04R
REGINA         CLEAR     43  32  65 W2        30.03F
YORKTON        CLEAR     43  39  87 NE6       30.02R
N. BATTLEFORD  CLEAR     52  34  50 NW2       30.04S   C1F1C2F2C3F3C4F4C5F5C6F6C7F7C8F8C9F9CaFaCbFbCcFcCdFdCe!



USA.gov is the U.S. government's official web portal to all federal, state and local government web resources and services.